CAPE
1 2 2 1 0 1 0 0 8 0 61 66 47 17 4 0 37 46 26 14 4 18 12 10 13 34 20 0 0 0 14 9 0 8 0 0 0 0 0 0 0 0 0 0
2 2 2 1 0 5 3 0 0 0 10 9 11 6 5 14 13 7 21 20 16 10 8 5 4 7 0 0 1 2 3 0 8 2 0 0 0 0 0 0 0 0 0 0
1 3 2 2 0 0 1 1 2 9 14 12 9 8 5 9 16 8 8 4 19 29 32 16 8 15 2 2 3 0 15 0 0 9 0 0 0 0 0 0 0 0 0 0
3 3 4 2 4 0 0 4 9 5 5 9 8 8 4 2 5 9 11 9 22 12 9 10 2 5 5 6 11 6 8 0 0 0 0 0 0 0 0 0 0 0 0 0
2 2 1 3 3 1 14 10 6 3 13 2 0 5 5 14 12 8 2 13 9 10 19 11 9 4 16 1 2 3 10 8 0 0 0 0 0 0 0 0 0 0 0 0
2 1 0 1 0 2 0 1 11 7 3 3 1 10 5 0 5 1 10 6 7 9 12 20 14 10 7 2 3 12 9 6 0 0 0 0 0 0 0 0 0 0 0 0
1 1 1 1 7 3 6 2 4 2 0 1 0 1 1 3 3 3 9 11 11 12 12 3 2 14 0 0 0 3 7 7 5 0 3 4 13 0 0 0 0 0 0 0
1 0 0 2 6 6 10 12 6 2 1 3 0 2 4 3 4 2 4 20 3 13 9 5 25 50 16 0 0 0 0 7 0 5 24 15 25 0 0 0 0 0 0 0
1 2 0 5 3 5 6 26 15 4 2 0 2 4 3 2 4 9 6 0 12 2 4 18 18 31 4 4 21 0 0 1 4 6 16 4 9 0 0 0 0 0 0 0
0 1 3 1 5 3 18 14 9 5 4 1 3 6 4 7 11 3 6 8 6 1 6 3 21 13 8 5 9 3 1 8 1 0 21 47 1 0 0 0 0 0 0 0
0 0 3 3 4 4 12 12 17 6 5 0 2 6 10 8 12 2 3 0 7 4 1 2 4 3 22 10 0 1 0 2 1 0 1 17 1 0 0 0 0 0 0 0
0 0 0 5 1 3 5 12 26 20 4 0 0 0 0 2 9 7 4 2 4 3 1 2 0 1 1 7 0 15 3 3 3 2 1 1 5 4 3 2 2 0 0 0
0 0 0 1 1 2 4 6 6 4 5 0 2 1 0 0 0 0 1 2 7 10 9 3 2 0 0 0 0 0 0 2 5 2 3 0 0 0 0 0 0 0 0 0
0 0 0 0 2 1 1 2 6 4 4 0 3 0 2 0 0 0 0 1 0 2 1 10 10 9 9 1 0 1 8 5 5 11 4 2 3 0 0 0 0 0 0 0
0 0 0 0 1 0 0 1 4 1 2 1 0 0 0 0 0 1 1 2 2 4 6 9 22 23 14 22 1 0 1 0 1 5 15 5 2 0 0 0 0 0 0 0
0 0 0 0 0 1 1 0 0 2 2 1 1 0 0 11 23 16 33 34 1 6 32 17 17 20 17 27 13 1 24 13 7 16 2 5 6 0 0 0 0 0 0 0
0 0 0 0 2 1 0 0 0 0 1 1 1 8 3 0 23 26 31 15 21 20 18 13 17 10 16 4 9 5 4 7 4 1 3 1 12 2 0 0 0 0 0 0
0 0 0 1 1 0 0 0 0 0 1 7 0 1 10 0 20 23 8 13 15 15 11 9 8 12 12 10 3 3 6 2 2 5 5 5 1 0 0 0 0 0 0 0
0 0 0 2 0 1 1 0 0 4 0 1 3 0 0 13 5 2 6 0 3 2 3 3 3 0 2 0 1 2 3 5 9 0 3 9 4 0 0 1 0 0 0 0
0 0 0 7 1 0 1 2 4 2 6 1 1 0 0 6 6 1 0 0 0 13 3 3 0 13 20 4 0 4 3 6 10 14 3 7 8 6 2 1 0 0 0 0
0 0 0 0 0 0 5 11 5 10 4 1 0 2 3 2 6 2 1 3 1 9 10 7 18 9 21 29 30 26 15 12 10 12 15 4 15 1 5 0 0 0 0 0
0 0 0 1 2 7 4 0 1 0 3 2 2 12 1 11 7 3 3 2 1 6 0 14 15 19 20 18 17 19 25 19 3 7 8 26 32 34 13 9 3 1 0 0
1 1 0 3 2 0 0 0 0 0 0 2 3 8 6 1 3 8 2 0 1 0 7 11 16 25 18 11 6 15 31 32 31 3 0 5 13 9 18 21 13 18 4 0
0 0 0 0 0 0 0 0 0 0 0 0 0 2 11 9 9 6 1 0 0 0 0 0 9 18 12 10 5 1 7 15 18 16 22 29 21 1 7 5 3 9 18 5
0 0 0 0 0 0 0 0 0 0 0 2 4 2 0 17 6 2 0 2 0 0 0 10 20 16 14 0 0 2 6 12 10 18 13 6 11 32 28 12 6 3 5 11
0 0 0 0 0 0 0 0 0 3 0 1 8 5 13 18 1 0 0 0 0 0 0 30 50 27 27 10 0 0 1 4 6 13 14 28 13 24 33 13 1 0 0 0
0 0 0 0 0 0 0 0 0 0 0 4 19 9 6 2 4 1 0 0 0 16 10 46 47 53 14 0 0 1 0 0 1 12 15 10 23 25 17 10 6 10 15 7
CIN
-0 -0 -0 -1 -0 -0 -0 -0 -0 -0 -4 -0 -18 -12 -2 -0 -3 -1 -2 -1 -14 -2 -2 -2 -2 -3 -5 -0 -0 -0 -30 -3 -25 -12 -0 -0 -0 -0 -0 -0 -0 -0 -0 -0
-0 -1 -0 -0 -0 -0 -0 -0 -0 -0 -1 -0 -0 -0 -3 -0 -2 -2 -2 -1 -2 -2 -2 -3 -1 -4 -0 -0 -0 -0 -3 -0 -9 -9 -7 -0 -0 -0 -0 -0 -0 -0 -0 -0
-0 -1 -0 -2 -2 -0 -1 -0 -0 -0 -0 -0 -0 -0 -1 -1 -2 -1 -1 -2 -2 -2 -2 -4 -15 -10 -2 -1 -0 -0 -0 -0 -0 -8 -0 -0 -0 -0 -0 -0 -0 -0 -0 -0
-0 -0 -1 -4 -6 -6 -0 -0 -0 -0 -0 -0 -0 -1 -1 -2 -2 -1 -2 -5 -3 -2 -2 -2 -2 -1 -1 -1 -0 -0 -0 -0 -0 -6 -0 -0 -0 -0 -0 -0 -0 -0 -0 -0
-0 -0 -5 -9 -4 -7 -0 -0 -0 -1 -0 -1 -2 -1 -1 -0 -1 -0 -0 -1 -2 -1 -1 -3 -1 -3 -1 -0 -0 -0 -0 -1 -0 -0 -0 -0 -0 -0 -0 -0 -0 -0 -0 -0
-0 -0 -3 -10 -3 -7 -0 -1 -1 -0 -1 -0 -0 -0 -0 -0 -1 -0 -1 -1 -1 -1 -2 -0 -1 -1 -1 -0 -0 -0 -0 -0 -0 -0 -1 -1 -0 -0 -0 -0 -0 -0 -0 -0
-0 -0 -1 -6 -1 -4 -0 -3 -3 -0 -1 -1 -1 -0 -1 -1 -0 -1 -9 -1 -0 -5 -1 -1 -1 -23 -0 -0 -0 -1 -0 -0 -5 -0 -7 -2 -14 -0 -0 -0 -0 -0 -0 -0
-0 -0 -0 -4 -7 -2 -0 -0 -0 -0 -0 -0 -0 -0 -0 -1 -1 -1 -1 -0 -0 -0 -0 -16 -5 -5 -16 -0 -0 -0 -2 -0 -1 -7 -10 -5 -20 -0 -0 -0 -0 -0 -0 -0
-0 -0 -0 -2 -10 -4 -2 -1 -1 -2 -0 -0 -0 -0 -0 -1 -0 -1 -0 -0 -0 -0 -0 -19 -6 -3 -6 -4 -1 -0 -4 -3 -0 -3 -6 -15 -9 -0 -0 -0 -0 -0 -0 -0
-0 -0 -0 -0 -5 -7 -0 -0 -2 -1 -0 -1 -1 -0 -0 -0 -0 -0 -0 -0 -0 -0 -0 -5 -3 -2 -2 -1 -1 -1 -2 -0 -0 -0 -5 -8 -1 -0 -0 -0 -0 -0 -0 -0
-0 -0 -0 -0 -2 -7 -0 -2 -2 -1 -0 -0 -0 -0 -0 -0 -0 -0 -0 -0 -0 -0 -0 -0 -0 -0 -0 -0 -0 -1 -0 -0 -0 -0 -4 -4 -0 -0 -0 -0 -1 -0 -0 -0
-0 -0 -0 -0 -0 -4 -6 -0 -0 -2 -0 -0 -0 -0 -0 -1 -0 -0 -0 -0 -0 -0 -0 -0 -0 -0 -0 -0 -1 -0 -0 -0 -0 -0 -0 -0 -1 -1 -0 -0 -0 -0 -0 -0
-0 -0 -0 -0 -0 -1 -2 -0 -1 -1 -0 -0 -2 -1 -0 -0 -0 -2 -0 -0 -0 -3 -0 -0 -0 -0 -0 -0 -0 -0 -0 -0 -0 -0 -0 -0 -0 -0 -0 -0 -0 -0 -0 -0
-0 -0 -0 -0 -0 -0 -1 -1 -0 -0 -0 -0 -1 -0 -4 -0 -0 -0 -0 -0 -0 -0 -0 -0 -0 -0 -0 -0 -0 -0 -0 -0 -0 -0 -0 -0 -0 -0 -0 -0 -0 -0 -0 -0
-0 -0 -0 -0 -0 -0 -0 -0 -1 -1 -0 -0 -0 -0 -0 -0 -0 -0 -0 -0 -0 -0 -1 -3 -5 -7 -3 -2 -0 -0 -0 -0 -0 -0 -0 -0 -0 -0 -0 -0 -0 -0 -0 -0
-0 -0 -0 -0 -0 -0 -1 -0 -0 -0 -0 -0 -0 -0 -24 -1 -1 -1 -0 -0 -4 -1 -0 -1 -1 -25 -1 -1 -2 -1 -1 -1 -0 -0 -0 -1 -1 -1 -0 -0 -0 -0 -0 -0
-0 -0 -0 -0 -0 -0 -0 -0 -0 -0 -0 -0 -0 -0 -2 -0 -0 -0 -0 -13 -0 -0 -1 -1 -1 -1 -0 -3 -2 -0 -0 -0 -1 -1 -1 -1 -1 -1 -0 -0 -0 -0 -0 -0
-0 -0 -0 -0 -0 -0 -0 -0 -0 -0 -0 -0 -0 -4 -1 -1 -0 -0 -0 -0 -1 -1 -0 -0 -0 -0 -0 -0 -0 -0 -0 -0 -1 -1 -1 -1 -0 -0 -0 -0 -0 -0 -0 -0
-0 -0 -0 -0 -0 -0 -1 -0 -0 -0 -0 -0 -0 -0 -0 -1 -3 -2 -0 -0 -1 -0 -0 -0 -0 -0 -0 -0 -0 -0 -0 -0 -0 -0 -1 -1 -1 -1 -1 -1 -0 -0 -0 -0
-0 -0 -0 -1 -0 -0 -0 -0 -0 -0 -0 -0 -0 -0 -0 -0 -0 -1 -2 -0 -0 -0 -0 -0 -0 -0 -0 -0 -0 -0 -0 -0 -1 -0 -2 -1 -0 -1 -1 -2 -0 -0 -0 -0
-0 -0 -0 -0 -0 -0 -0 -0 -0 -0 -0 -0 -0 -0 -0 -1 -0 -0 -0 -0 -0 -0 -0 -5 -0 -0 -0 -2 -0 -0 -0 -0 -7 -0 -0 -2 -0 -3 -1 -1 -0 -0 -0 -0
-0 -0 -0 -0 -0 -0 -0 -0 -0 -0 -0 -1 -0 -1 -0 -0 -2 -0 -2 -0 -0 -0 -0 -1 -1 -1 -1 -1 -1 -1 -1 -0 -1 -12 -1 -0 -0 -0 -0 -0 -0 -0 -0 -0
-0 -0 -0 -0 -0 -0 -0 -0 -0 -0 -0 -0 -1 -2 -0 -7 -0 -0 -1 -0 -0 -0 -0 -0 -0 -1 -1 -1 -1 -1 -1 -0 -1 -3 -4 -0 -4 -0 -0 -0 -0 -1 -0 -0
-0 -0 -0 -0 -0 -0 -0 -0 -0 -0 -0 -0 -0 -0 -1 -0 -0 -0 -0 -0 -0 -0 -0 -0 -2 -0 -1 -1 -1 -1 -1 -1 -1 -2 -0 -0 -0 -0 -0 -6 -11 -0 -0 -1
-0 -0 -0 -0 -0 -0 -0 -0 -0 -0 -0 -2 -0 -0 -0 -0 -0 -0 -0 -0 -0 -0 -0 -1 -0 -1 -8 -0 -0 -1 -1 -1 -1 -1 -0 -3 -1 -0 -0 -1 -0 -0 -2 -0
-0 -0 -0 -0 -0 -0 -0 -0 -0 -1 -0 -2 -9 -1 -0 -0 -0 -0 -0 -0 -0 -0 -0 -1 -0 -2 -4 -16 -0 -0 -1 -0 -1 -0 -0 -0 -1 -0 -0 -0 -3 -0 -0 -0
-0 -0 -0 -0 -0 -0 -0 -0 -0 -0 -0 -2 -1 -0 -1 -0 -0 -0 -0 -0 -0 -10 -1 -1 -1 -3 -5 -0 -0 -1 -0 -0 -1 -1 -1 -0 -0 -0 -0 -0 -2 -0 -0 -0
Wind_Speed
28 28 28 28 28 23 21 20 19 21 16 17 18 23 27 21 2 14 13 21 23 22 25 28 27 24 24 14 22 31 34 34 39 47 44 42 38 36 32 29 24 30 23 18
24 24 25 24 25 16 17 17 16 17 16 20 12 2 7 4 6 17 15 17 20 23 23 20 21 22 14 18 19 23 30 40 39 40 45 43 49 42 37 34 26 32 24 17
21 21 21 19 20 11 13 17 19 19 17 14 11 7 9 3 3 7 11 15 15 20 20 22 22 23 22 23 22 22 30 43 42 36 44 38 47 46 38 40 39 27 33 14
19 18 17 17 13 9 15 18 18 19 19 16 9 6 6 3 5 4 13 13 18 20 21 23 19 22 24 23 22 21 26 49 46 34 33 35 40 47 41 45 43 39 26 32
15 15 15 15 13 11 15 17 16 15 10 12 11 10 9 6 3 4 8 16 22 23 23 26 27 24 22 18 18 20 23 35 45 43 37 35 38 39 46 40 42 41 30 29
14 14 14 15 15 16 17 15 13 13 12 13 11 11 8 5 3 5 4 12 18 21 24 25 30 30 28 27 24 21 19 27 46 48 38 33 40 39 42 39 39 40 38 32
12 14 13 13 15 17 16 16 16 16 15 14 10 4 5 4 3 1 3 3 11 21 29 29 31 32 33 33 31 27 26 25 36 48 35 42 24 24 32 38 37 41 34 32
10 12 13 13 14 15 13 15 16 16 15 11 10 12 7 4 3 1 1 4 7 13 19 18 20 22 24 30 33 31 30 28 32 43 47 27 23 21 25 30 28 25 30 33
9 10 11 13 14 15 13 13 13 14 15 15 11 9 7 7 10 8 2 4 4 10 12 14 18 20 21 19 19 22 28 28 29 37 46 43 24 24 24 24 28 20 24 27
13 10 9 11 13 14 14 12 12 13 13 9 12 12 10 8 7 9 4 2 6 8 9 12 15 18 19 20 21 25 27 28 35 34 35 29 20 21 24 36 26 22 23 25
16 15 9 9 10 13 13 11 11 12 13 6 6 7 6 4 4 9 2 8 7 6 7 9 11 16 18 18 11 22 25 27 30 33 38 32 19 21 28 24 21 20 23 24
19 13 14 8 7 10 12 10 12 9 10 6 6 3 1 3 4 3 7 7 11 12 10 9 8 14 16 19 17 11 19 21 25 25 28 24 21 17 16 18 21 20 22 24
21 15 11 11 5 6 9 10 13 12 12 9 12 14 16 10 8 8 12 10 11 11 14 12 10 12 13 15 18 18 16 16 20 24 23 24 21 18 18 19 20 21 22 24
20 17 12 8 7 3 7 8 12 12 13 15 17 15 12 14 13 12 11 12 13 12 12 13 11 13 15 13 14 14 15 17 19 21 19 22 24 23 23 24 23 23 22 22
19 18 14 9 4 4 6 6 8 11 14 14 10 6 15 13 14 12 13 14 13 13 12 13 13 12 15 15 11 12 15 16 18 20 18 22 28 28 26 25 25 25 23 23
17 18 14 8 2 7 9 10 12 11 13 14 16 14 15 14 17 18 18 15 16 14 12 13 13 13 15 16 15 15 17 19 20 23 25 26 27 27 23 26 27 26 26 24
16 17 13 10 10 10 9 12 14 13 14 14 13 15 17 16 16 17 18 16 15 14 14 11 16 15 15 16 16 21 23 25 26 27 27 26 22 26 28 28 28 26 26 25
16 16 23 19 14 11 10 14 13 13 11 12 14 14 14 19 17 17 16 16 16 15 13 11 1 19 18 18 25 26 24 25 24 24 27 29 30 29 28 27 28 29 26 25
17 19 16 15 13 13 15 13 11 10 10 12 12 15 15 15 17 15 16 16 18 17 18 18 13 17 20 24 26 25 25 25 26 27 28 28 28 29 28 27 27 29 29 27
12 20 16 15 16 16 15 12 12 11 12 11 11 11 13 13 13 13 14 16 16 15 17 15 17 17 17 18 16 22 23 24 24 26 27 27 27 28 29 29 29 29 31 30
24 24 19 18 15 12 11 12 11 12 11 11 10 10 9 14 12 11 13 12 15 15 18 16 17 17 17 17 8 19 24 25 24 24 25 26 27 28 29 29 29 30 30 30
22 16 21 17 15 14 13 14 13 11 13 11 12 12 8 10 12 11 12 12 13 14 15 15 18 15 11 15 13 8 23 24 24 22 21 21 24 26 27 28 29 30 32 32
20 19 18 16 15 13 14 14 14 13 11 11 11 11 12 11 10 10 11 11 12 11 13 14 15 11 6 8 3 20 20 23 23 22 21 21 23 23 24 26 27 29 30 31
20 20 20 15 14 13 13 12 14 15 12 11 11 11 10 10 10 11 11 11 11 11 12 12 16 22 15 6 2 9 18 24 25 25 23 23 23 23 24 24 25 27 29 30
19 17 18 15 14 15 14 13 14 13 13 13 15 15 12 12 11 10 11 11 10 10 10 10 8 24 24 22 20 13 12 18 24 25 25 23 24 23 23 24 25 26 27 29
15 13 16 15 17 16 13 11 11 12 12 14 15 15 15 13 13 13 11 11 10 10 9 8 7 7 14 24 24 22 20 17 20 22 24 23 24 24 24 24 24 25 26 27
14 16 11 13 18 19 18 14 10 9 10 11 14 13 13 14 12 11 11 10 11 11 10 9 9 8 8 10 25 25 25 24 22 22 23 22 22 23 24 26 26 27 27 29
Wind_Direction
23 23 23 21 22 23 38 44 46 39 53 53 45 330 320 5 85 34 248 262 291 293 282 273 264 272 271 296 281 244 232 238 235 224 222 225 224 229 224 234 235 251 264 278
25 26 25 24 26 34 45 52 61 58 64 51 71 180 238 145 245 274 255 253 280 273 269 278 268 263 277 269 273 251 233 228 227 222 220 224 225 227 225 236 240 240 246 269
29 28 27 24 30 32 57 59 57 60 69 70 64 60 81 235 224 222 239 250 237 280 269 261 258 268 261 253 256 265 238 223 223 222 215 219 220 221 225 227 230 237 233 249
31 27 25 25 28 36 66 62 58 55 53 58 55 65 80 77 80 139 256 230 265 279 271 269 255 274 267 249 249 270 241 219 218 230 225 227 225 222 224 226 228 232 240 239
27 22 24 28 38 50 73 62 57 51 39 51 50 69 74 67 41 235 215 248 278 275 258 262 259 272 265 252 260 262 240 222 221 221 224 226 225 228 225 229 228 231 241 240
22 21 22 33 44 58 60 62 65 55 49 51 54 63 56 34 355 88 131 238 259 260 276 275 271 266 258 258 262 255 242 226 215 213 219 224 224 228 226 229 231 229 233 236
17 22 23 35 46 55 58 57 55 52 45 46 51 21 35 17 24 186 229 206 230 269 286 270 262 252 248 244 251 253 238 232 220 214 215 216 228 235 230 228 233 228 237 234
7 16 23 36 44 49 56 53 53 51 39 43 45 46 28 42 51 92 201 50 50 246 257 243 255 256 254 244 232 236 234 231 220 211 212 220 228 234 227 226 231 241 239 239
2 358 18 33 40 44 52 55 59 50 38 51 36 21 45 43 51 71 160 261 148 118 150 203 246 255 251 247 247 243 229 230 224 215 211 215 232 243 241 235 230 247 242 239
17 341 4 25 37 40 44 49 57 48 34 38 47 35 38 62 71 69 252 270 133 124 175 216 248 251 244 239 236 222 222 225 218 219 214 223 249 248 232 220 230 247 243 239
17 15 354 13 34 39 41 48 62 51 36 16 39 39 39 68 59 51 156 262 193 178 237 160 248 251 248 241 273 226 224 221 221 222 219 220 256 240 225 235 246 250 246 245
12 5 12 6 24 39 44 49 60 62 49 36 335 343 217 228 236 225 86 164 227 225 237 250 220 271 255 244 237 274 234 241 229 232 228 246 243 238 251 256 247 255 255 252
7 2 351 6 2 46 55 54 56 55 44 43 61 61 55 66 84 94 56 75 130 153 261 235 209 278 283 254 255 258 262 261 243 236 244 242 239 256 263 261 255 261 264 258
1 0 343 339 13 60 71 65 60 64 56 58 66 73 56 65 85 96 118 126 157 190 210 221 230 279 306 281 272 263 269 263 253 244 257 245 244 260 265 264 261 262 268 266
358 357 348 312 8 62 89 76 87 76 65 57 64 58 79 76 87 108 134 145 160 142 166 229 273 258 292 295 285 282 281 267 255 246 268 255 250 260 265 260 262 262 267 267
347 354 333 327 326 73 86 76 76 78 72 64 68 75 75 78 87 92 92 117 127 139 140 266 263 255 282 284 276 284 281 282 275 265 272 271 267 264 263 269 264 264 264 266
329 349 333 1 44 93 88 63 59 66 72 72 71 74 73 74 93 95 97 112 125 130 123 285 292 287 280 291 280 298 287 278 274 269 272 267 269 269 269 270 265 269 267 265
323 354 10 24 57 65 76 44 52 74 91 85 75 74 79 67 79 88 102 103 104 106 118 127 122 325 314 306 305 295 284 281 269 269 271 268 269 271 271 274 268 262 264 267
302 7 29 37 51 52 38 42 59 96 111 94 87 64 69 69 72 93 92 102 96 96 92 93 102 86 51 308 305 298 290 282 277 275 271 271 268 268 270 275 270 263 261 266
1 20 28 30 33 25 35 50 57 79 99 119 87 81 67 71 82 89 88 84 86 88 81 94 85 81 70 70 320 318 316 310 299 282 277 276 273 272 270 271 272 268 264 267
8 6 14 13 17 30 50 52 64 62 56 72 77 82 71 55 78 84 81 93 80 79 76 90 85 83 70 70 80 305 312 314 306 294 283 276 275 276 274 272 270 267 267 266
357 353 353 13 34 47 45 45 50 56 45 55 44 42 77 73 65 90 94 102 91 88 76 90 75 80 79 64 321 298 327 329 323 309 302 297 285 282 281 276 275 270 267 265
2 6 10 14 26 28 32 31 37 39 52 53 48 44 42 59 82 82 83 85 93 96 92 85 79 98 112 78 66 320 320 327 330 329 318 311 303 291 287 280 274 272 271 269
351 352 349 5 8 14 19 22 23 25 42 50 53 49 60 65 61 63 58 74 84 91 87 89 25 308 282 262 273 306 321 333 334 333 321 320 319 302 297 298 291 282 270 267
343 348 346 351 356 358 2 1 6 18 24 25 20 26 41 39 44 58 53 54 64 77 85 88 97 328 310 306 302 292 304 317 330 333 337 330 324 317 311 309 304 300 289 277
340 340 338 346 346 344 353 355 358 9 13 14 14 16 21 29 31 28 30 36 44 51 64 83 116 117 24 314 308 306 303 304 315 324 331 327 332 327 322 319 318 316 308 297
338 334 332 327 333 334 339 352 4 21 12 5 8 17 25 29 33 36 30 27 26 33 43 55 61 84 103 66 316 313 313 312 313 318 322 321 319 323 328 333 330 322 317 310